EA4TN Weather Reports


time (UTC)temp
F
wind
direction
speed
knots
gust
knots
rain 1hr
in
rain 24hr
in
rain mn
in
humidity
%
barometer
mb
20260505032016 52 243 1.7 2.6 0.00 0.00 0.00 69 1012.9
20260505031016 52 237 1.7 3.5 0.00 0.00 0.00 67 1012.9
20260505030016 53 256 1.7 3.5 0.00 0.00 0.00 64 1012.9
20260505025016 53 0.0 0.0 0.00 0.00 0.00 63 1013.0
20260505024016 53 316 0.0 1.7 0.00 0.00 0.00 63 1013.0
20260505023056 53 256 0.9 2.6 0.00 0.00 0.00 63 1013.1
20260505022016 53 280 0.9 2.6 0.00 0.00 0.00 62 1013.1
20260505021016 53 0.0 2.6 0.00 0.00 0.00 62 1013.1
20260505020016 54 278 0.9 1.7 0.00 0.00 0.00 61 1013.2
20260505015016 54 337 1.7 3.5 0.00 0.00 0.00 60 1013.2
20260505014016 54 340 0.9 4.3 0.00 0.00 0.00 60 1013.3
20260505013016 54 319 0.9 3.5 0.00 0.00 0.00 60 1013.3
20260505012016 55 23 0.9 6.1 0.00 0.00 0.00 59 1013.3
20260505011016 55 302 1.7 5.2 0.00 0.00 0.00 60 1013.2
20260505010016 54 310 2.6 5.2 0.00 0.00 0.00 61 1013.3
20260505005016 53 301 0.9 2.6 0.00 0.00 0.00 65 1013.2
20260505004016 54 218 0.9 2.6 0.00 0.00 0.00 65 1013.4
20260505003016 54 250 0.9 3.5 0.00 0.00 0.00 64 1013.3
20260505002016 54 293 0.0 1.7 0.00 0.00 0.00 64 1013.4
20260505001016 54 293 0.9 1.7 0.00 0.00 0.00 64 1013.3
20260505000016 54 279 0.9 3.5 0.00 0.00 0.00 65 1013.3
20260504235015 54 193 1.7 3.5 0.00 0.00 0.00 67 1013.4
20260504234016 54 225 1.7 3.5 0.00 0.00 0.00 67 1013.4
20260504233016 54 209 1.7 2.6 0.00 0.00 0.00 66 1013.3
20260504232016 54 194 1.7 4.3 0.00 0.00 0.00 66 1013.3
20260504231016 55 191 1.7 4.3 0.00 0.00 0.00 64 1013.2
20260504230016 55 198 0.9 3.5 0.00 0.00 0.00 63 1013.2
20260504225015 55 0.0 0.0 0.00 0.00 0.00 63 1013.1
20260504224016 55 0.0 0.0 0.00 0.00 0.00 63 1013.0
20260504223015 56 201 0.0 1.7 0.00 0.00 0.00 62 1013.0
20260504222035 56 195 0.9 2.6 0.00 0.00 0.00 62 1013.2
20260504221015 56 239 0.9 2.6 0.00 0.00 0.00 61 1013.2
20260504220136 57 245 0.0 1.7 0.00 0.00 0.00 60 1013.2
20260504215016 57 246 0.9 1.7 0.00 0.00 0.00 59 1013.2
20260504214015 58 219 0.9 2.6 0.00 0.00 0.00 58 1013.3
20260504213015 58 233 0.9 2.6 0.00 0.00 0.00 56 1013.3
20260504212036 59 269 1.7 4.3 0.00 0.00 0.00 55 1013.2
20260504211015 59 281 0.9 2.6 0.00 0.00 0.00 55 1013.1
20260504210016 59 297 1.7 2.6 0.00 0.00 0.00 55 1013.1
20260504205036 59 295 1.7 3.5 0.00 0.00 0.00 55 1013.0
20260504204016 59 289 1.7 5.2 0.00 0.00 0.00 56 1012.9
20260504203036 59 304 1.7 5.2 0.00 0.00 0.00 55 1012.8
20260504202016 59 308 1.7 3.5 0.00 0.00 0.00 55 1012.7
20260504201016 60 301 2.6 6.1 0.00 0.00 0.00 55 1012.5
20260504200156 60 303 1.7 4.3 0.00 0.00 0.00 55 1012.3
20260504195035 60 314 1.7 4.3 0.00 0.00 0.00 54 1012.2
20260504194016 60 317 1.7 4.3 0.00 0.00 0.00 53 1011.9
20260504193016 60 301 1.7 4.3 0.00 0.00 0.00 53 1011.6
20260504192015 61 295 1.7 4.3 0.00 0.00 0.00 53 1011.7
20260504191016 62 324 2.6 7.0 0.00 0.00 0.00 52 1011.5
20260504190016 62 316 5.2 11.3 0.00 0.00 0.00 50 1011.5
20260504185015 64 328 4.3 7.8 0.00 0.00 0.00 49 1011.5
20260504184016 64 332 2.6 7.8 0.00 0.00 0.00 49 1011.4
20260504183016 65 293 4.3 7.8 0.00 0.00 0.00 48 1011.3
20260504182036 65 325 2.6 6.1 0.00 0.00 0.00 48 1011.3
20260504181036 65 308 3.5 7.8 0.00 0.00 0.00 47 1011.3
20260504180016 66 331 3.5 8.7 0.00 0.00 0.00 44 1011.3
20260504175036 66 266 4.3 9.6 0.00 0.00 0.00 39 1011.2
20260504174016 66 264 7.0 10.4 0.00 0.00 0.00 39 1011.2
20260504173016 66 278 4.3 9.6 0.00 0.00 0.00 43 1011.2
20260504172036 67 268 5.2 12.2 0.00 0.00 0.00 39 1011.2
20260504171016 67 275 5.2 11.3 0.00 0.00 0.00 39 1011.2
20260504151016 68 275 7.8 17.4 0.00 0.00 0.00 37 1011.3
20260504141036 67 265 7.8 16.5 0.00 0.00 0.00 44 1011.7
20260504081016 55 255 2.6 4.3 0.00 0.00 0.00 80 1013.0
20260504050016 53 258 1.7 5.2 0.00 0.03 0.00 79 1011.8
20260504045036 53 263 2.6 4.3 0.00 0.03 0.00 79 1011.8
20260504044016 53 269 1.7 4.3 0.00 0.03 0.00 79 1011.8
20260504043016 53 272 1.7 4.3 0.00 0.03 0.00 78 1011.8
20260504042016 53 269 1.7 4.3 0.00 0.03 0.00 77 1011.8
20260504041016 54 270 1.7 3.5 0.00 0.03 0.00 77 1012.0
20260504040017 54 264 1.7 4.3 0.00 0.03 0.00 77 1012.1
20260504035016 54 266 1.7 3.5 0.00 0.03 0.00 76 1012.1
20260504034016 54 266 1.7 3.5 0.00 0.03 0.00 76 1012.0
20260504033016 54 245 1.7 3.5 0.00 0.03 0.00 75 1012.1